Regional Weather Roundup
Issued by NWS Raleigh/Durham, NC

Current Version | Previous Version | Text Only | Print | Product List | Glossary On
Versions: 1 2 3 4 5 6 7 8 9 10 11 12 13 14 15 16 17 18 19 20 21 22 23 24 25 26 27 28 29 30 31 32 33 34 35 36 37 38 39 40 41 42 43 44 45 46 47 48 49 50
000 ASUS42 KRAH 090310 RWRRAH NORTH CAROLINA WEATHER ROUNDUP NATIONAL WEATHER SERVICE RALEIGH NC 1000 PM EST MON FEB 08 2016 NOTE: "FAIR" INDICATES FEW OR NO CLOUDS BELOW 12,000 FEET WITH NO SIGNIFICANT WEATHER AND/OR OBSTRUCTIONS TO VISIBILITY. NCZ001-053-055-056-065-067-090400- WESTERN NORTH CAROLINA CITY SKY/WX TMP DP RH WIND PRES REMARKS ASHEVILLE FLURRIES 33 25 72 N8 29.66F WCI 26 JEFFERSON LGT SNOW 29 22 73 NW14G22 29.57F WCI 18 MORGANTON PTCLDY 37 26 63 W3 29.71S HICKORY MOCLDY 38 25 59 NW5 29.66R WCI 34 RUTHERFORDTON PTCLDY 37 24 60 NW6 29.68F WCI 33 MOUNT AIRY PTCLDY 36 29 76 CALM 29.66F BOONE FLURRIES 28 22 78 NW21G30 29.60F WCI 15 $$ NCZ021-022-025-041-071-084-088-090400- CENTRAL NORTH CAROLINA CITY SKY/WX TMP DP RH WIND PRES REMARKS CHARLOTTE MOCLDY 37 32 82 CALM 29.66F GREENSBORO MOCLDY 35 32 88 CALM 29.65F WINSTON-SALEM MOCLDY 36 29 75 NW6 29.67F WCI 31 RALEIGH-DURHAM CLOUDY 38 37 97 CALM 29.67F FORT BRAGG CLOUDY 40 39 96 MISG 29.66F FAYETTEVILLE CLOUDY 39 38 96 W5 29.67F BURLINGTON PTCLDY 38 33 82 NW5 29.66F WCI 34 LAURINBURG PTCLDY 39 39 100 SW6 29.68F WCI 35 $$ NCZ011-015-027-028-043-044-047-080-103-090400- NORTHEASTERN NORTH CAROLINA CITY SKY/WX TMP DP RH WIND PRES REMARKS ROCKY MT-WILSO CLOUDY 42 41 96 CALM 29.68S GREENVILLE DRIZZLE 43 41 93 CALM 29.71F WASHINGTON LGT RAIN 43 38 82 CALM 29.69S ELIZABETH CITY CLOUDY 42 37 82 E7 29.66F MANTEO PTCLDY 42 38 86 E8 29.68F CAPE HATTERAS CLEAR 39 34 82 CALM 29.66F $$ NCZ078-087-090-091-093-098-101-090400- SOUTHEASTERN NORTH CAROLINA CITY SKY/WX TMP DP RH WIND PRES REMARKS LUMBERTON CLOUDY 43 39 86 SW6 29.68F GOLDSBORO CLOUDY 41 41 100 S2 29.66F KINSTON CLOUDY 41 40 97 CALM 29.69F KENANSVILLE PTCLDY 40 40 100 CALM 29.70S NEW BERN CLOUDY 45 36 70 W12G18 29.73R CHERRY POINT CLOUDY 46 37 71 W16 29.72R BEAUFORT PTCLDY 45 37 73 NW25G31 29.71R JACKSONVILLE CLOUDY 44 38 79 CALM 29.68F WILMINGTON CLOUDY 46 41 82 W5 29.68F $$

USA.gov is the U.S. government's official web portal to all federal, state and local government web resources and services.